アトラス彗星

P/2017 S5 ( ATLAS )

English version
Home page
Updated on February 13, 2018

---------------------------------------------------------------------

・ プロフィール

発見日 2017年9月27日
発見光度 18.2等
発見者 Asteroid Terrestrial-impact Last Alert System (ATLAS) search program

・ 写真集

・ 軌道要素

Epoch 2017 July 26.0 TT = JDT 2457960.5
T 2017 July 27.96569 TT                                 MPCW
q   2.1781413            (2000.0)            P               Q
n   0.17455881     Peri.   99.91978     +0.97101029     +0.13724024
a   3.1708439      Node   252.39436     -0.19733618     +0.92229133
e   0.3130721      Incl.   11.84893     +0.13489792     +0.36130848
P   5.65
From 402 observations 2017 Sept. 1-2018 Jan. 18, mean residual 0".4.

・ 光度変化

        m1 = 13.5 + 5 logΔ + 10.0 log r

---------------------------------------------------------------------

軌道要素はM.P.E.C. 2018-B155に掲載されたものです。
光度グラフはComet for Windowsで作成したものです。

---------------------------------------------------------------------

Copyright(C) Seiichi Yoshida (comet@aerith.net). All rights reserved.